[[{"header":{"parameterUnit":"m.s-1","parameterCategory":1,"la1":30.2992,"la2":30.254,"lo1":-89.0895,"lo2":-89.0443,"dy":0.0025,"dx":0.0025,"nx":19,"ny":19,"refTime":"2026-05-10T03:00:00:Z","depth":0,"parameterNumber":2,"parameterNumberName":"U-component_of_WINDS"},"data":[0,0,0,-2.2393,-2.2392,-2.235,-2.235,-2.2327,-2.2327,0,0,0,0,0,0,0,0,0,0,0,-2.2423,-2.2423,-2.2393,-2.2392,-2.235,-2.235,-2.2327,-2.2327,0,0,0,0,0,0,0,0,0,0,0,-2.2423,-2.2423,-2.2424,-2.2392,-2.235,-2.235,-2.2327,-2.2348,0,0,0,0,0,0,0,0,0,0,-2.2384,-2.2429,-2.2423,-2.2424,-2.2392,-2.235,-2.235,-2.2349,-2.2347,-2.236,0,-2.2375,0,-2.2351,-2.2328,-2.2328,0,0,0,-2.2379,-2.243,-2.2403,-2.2424,-2.2392,-2.235,-2.2365,-2.2347,-2.2345,-2.2357,-2.2374,-2.2372,-2.2351,-2.2328,-2.2328,-2.2446,-2.2447,0,0,-2.2381,-2.2425,-2.2404,-2.2403,-2.241,-2.2367,-2.2364,-2.2345,-2.2367,-2.2374,-2.2371,-2.235,-2.2328,-2.2328,-2.2444,-2.2446,0,0,0,-2.2397,-2.2427,-2.2399,-2.2404,-2.2394,-2.2366,-2.2363,-2.2368,-2.2355,-2.2371,-2.235,-2.2328,-2.2328,-2.2443,-2.2445,-2.2547,0,0,0,-2.2397,-2.2436,-2.2401,-2.2428,-2.2395,-2.238,-2.2386,-2.2356,-2.2353,-2.235,-2.2328,-2.2328,-2.2442,-2.2444,-2.2541,-2.2587,0,0,0,-2.242,-2.2438,-2.2439,-2.243,-2.2414,-2.2379,-2.2365,-2.2354,-2.2341,-2.2328,-2.2328,-2.2441,-2.2444,-2.2536,-2.2579,-2.2633,0,0,0,-2.2456,-2.2528,-2.2441,-2.2514,-2.2414,-2.2442,-2.2365,-2.2383,-2.2384,-2.2328,-2.2442,-2.2445,-2.2534,-2.2574,-2.2628,-2.2687,-2.2715,0,0,-2.2572,-2.2544,-2.2583,-2.2504,-2.2559,-2.2445,-2.2515,-2.2474,-2.2433,-2.2444,-2.2446,-2.2543,-2.2578,-2.2632,-2.2857,-2.288,0,0,0,-2.2635,-2.2664,-2.2669,-2.2673,-2.2644,-2.2623,-2.2567,-2.2552,-2.256,-2.2447,-2.2575,-2.2594,-2.2624,-2.265,-2.267,-2.2693,-2.2458,-2.2458,-2.2458,-2.2862,-2.2806,-2.2869,-2.2809,-2.2813,-2.2756,-2.2755,-2.2725,-2.2666,-2.2698,-2.2701,-2.2844,-2.2877,-2.2891,-2.2916,-2.2726,-2.2727,-2.2727,-2.2727,-2.3028,-2.3061,-2.2983,-2.3016,-2.2957,-2.2984,-2.2933,-2.2891,-2.2909,-2.2836,-2.286,-2.2786,-2.2918,-2.2937,-2.2734,-2.2733,-2.2732,-2.2732,-2.2731,-2.3171,-2.3178,-2.3159,-2.316,-2.3167,-2.3104,-2.3126,-2.307,-2.3019,-2.3042,-2.3041,-2.3039,-2.3032,-2.3045,-2.3046,-2.3046,-2.3047,-2.3047,-2.3047,-2.3328,-2.3303,-2.3328,-2.3306,-2.3302,-2.329,-2.3236,-2.3231,-2.3212,-2.317,-2.317,-2.311,-2.2941,-2.29,-2.3055,-2.3053,-2.3052,-2.3052,-2.3051,-2.3519,-2.3467,-2.3505,-2.3502,-2.3473,-2.3485,-2.3415,-2.3411,-2.3399,-2.3412,-2.3348,-2.3231,-2.3198,-2.3183,-2.3149,-2.3358,-2.3358,-2.3358,-2.3358,-2.3641,-2.3619,-2.3647,-2.3646,-2.3638,-2.358,-2.3628,-2.3587,-2.3537,-2.3527,-2.3488,-2.3439,-2.3425,-2.34,-2.338,-2.3347,-2.3603,-2.3603,-2.3603,-2.3756,-2.3731,-2.3781,-2.3732,-2.3705,-2.3685,-2.3728,-2.3732,-2.3664,-2.3612,-2.3518,-2.3508,-2.3427,-2.3403,-2.3349,-2.3318,-2.3258,0,0]},{"header":{"parameterUnit":"m.s-1","parameterCategory":1,"la1":30.2992,"la2":30.254,"lo1":-89.0895,"lo2":-89.0443,"dy":0.0025,"dx":0.0025,"nx":19,"ny":19,"refTime":"2026-05-10T03:00:00:Z","depth":0,"parameterNumber":3,"parameterNumberName":"V-component_of_WINDS"},"data":[0,0,0,-0.1285,-0.1284,-0.1255,-0.1255,-0.1226,-0.1226,0,0,0,0,0,0,0,0,0,0,0,-0.13,-0.13,-0.1285,-0.1284,-0.1255,-0.1255,-0.1226,-0.1226,0,0,0,0,0,0,0,0,0,0,0,-0.13,-0.13,-0.13,-0.1284,-0.1255,-0.1255,-0.1226,-0.1245,0,0,0,0,0,0,0,0,0,0,-0.1271,-0.1292,-0.13,-0.13,-0.1284,-0.1255,-0.1255,-0.1245,-0.1243,-0.1243,0,-0.1245,0,-0.1235,-0.1224,-0.1224,0,0,0,-0.1279,-0.1293,-0.128,-0.13,-0.1284,-0.1255,-0.1267,-0.1244,-0.1242,-0.124,-0.1245,-0.1243,-0.1234,-0.1224,-0.1224,-0.124,-0.124,0,0,-0.1281,-0.1298,-0.1282,-0.1279,-0.1286,-0.1268,-0.1266,-0.1243,-0.1248,-0.1244,-0.1242,-0.1234,-0.1224,-0.1224,-0.1239,-0.124,0,0,0,-0.1289,-0.1299,-0.1286,-0.128,-0.1275,-0.1267,-0.1265,-0.1249,-0.1243,-0.1242,-0.1234,-0.1224,-0.1224,-0.1239,-0.1239,-0.1272,0,0,0,-0.129,-0.1304,-0.1287,-0.1297,-0.1275,-0.1262,-0.1272,-0.1245,-0.1242,-0.1234,-0.1224,-0.1223,-0.1239,-0.1239,-0.1271,-0.1285,0,0,0,-0.13,-0.1305,-0.1303,-0.1298,-0.1286,-0.1262,-0.1255,-0.1244,-0.1237,-0.1224,-0.1223,-0.1238,-0.1239,-0.1269,-0.1283,-0.1295,0,0,0,-0.1315,-0.1332,-0.1304,-0.1319,-0.1286,-0.1282,-0.1255,-0.125,-0.1243,-0.1224,-0.1239,-0.1239,-0.1269,-0.1281,-0.1293,-0.1309,-0.1317,0,0,-0.1345,-0.1336,-0.1344,-0.1318,-0.1323,-0.1285,-0.1295,-0.1272,-0.1254,-0.1245,-0.1245,-0.1271,-0.1282,-0.1294,-0.1353,-0.136,0,0,0,-0.1359,-0.1365,-0.1363,-0.1357,-0.134,-0.1327,-0.1301,-0.1292,-0.1283,-0.1254,-0.1278,-0.1284,-0.129,-0.1297,-0.1302,-0.1307,-0.1243,-0.1243,-0.1243,-0.1428,-0.1405,-0.1416,-0.139,-0.1385,-0.1357,-0.135,-0.1333,-0.1311,-0.1317,-0.1315,-0.1354,-0.1362,-0.1366,-0.1371,-0.132,-0.1321,-0.1321,-0.1321,-0.1472,-0.1477,-0.1447,-0.1448,-0.1423,-0.1423,-0.1396,-0.138,-0.1376,-0.1354,-0.1358,-0.1337,-0.1374,-0.1377,-0.1323,-0.1323,-0.1322,-0.1322,-0.1322,-0.1515,-0.1514,-0.1503,-0.1492,-0.1486,-0.1457,-0.1455,-0.1432,-0.141,-0.1414,-0.1409,-0.1408,-0.1406,-0.1413,-0.1413,-0.1413,-0.1413,-0.1413,-0.1413,-0.1565,-0.1552,-0.1553,-0.1536,-0.1529,-0.1517,-0.1488,-0.148,-0.1465,-0.1448,-0.1448,-0.1426,-0.1382,-0.1372,-0.1416,-0.1415,-0.1415,-0.1415,-0.1415,-0.1621,-0.1604,-0.1607,-0.16,-0.1577,-0.1572,-0.1542,-0.1528,-0.1517,-0.1517,-0.1492,-0.1463,-0.1451,-0.1447,-0.1439,-0.1497,-0.1497,-0.1497,-0.1497,-0.1659,-0.165,-0.1647,-0.1638,-0.1625,-0.1598,-0.16,-0.1577,-0.155,-0.1542,-0.1529,-0.1516,-0.1512,-0.1502,-0.1497,-0.1489,-0.1559,-0.1559,-0.1559,-0.1692,-0.1681,-0.1688,-0.1663,-0.1643,-0.1626,-0.1627,-0.1616,-0.1582,-0.1561,-0.1535,-0.1532,-0.151,-0.1504,-0.1484,-0.1476,-0.1461,0,0]}]]